02-05-2022, 00:00:02,    184,    0.0,    7.7,   0.00,   0.00, 1017.2,   86.6, -999.0
02-05-2022, 00:00:12,    184,    0.0,    7.6,   0.00,   0.00, 1017.2,   86.7, -999.0
02-05-2022, 00:00:22,    184,    0.0,    7.7,   0.00,   0.00, 1017.2,   86.7, -999.0
02-05-2022, 00:00:32,    184,    0.0,    7.6,   0.00,   0.00, 1017.2,   86.7, -999.0
02-05-2022, 00:00:42,    184,    0.0,    7.7,   0.00,   0.00, 1017.1,   86.8, -999.0
02-05-2022, 00:00:52,    184,    0.0,    7.6,   0.00,   0.00, 1017.2,   86.7, -999.0
02-05-2022, 00:01:02,    184,    0.0,    7.7,   0.00,   0.00, 1017.2,   86.8, -999.0
02-05-2022, 00:01:12,    184,    0.0,    7.8,   0.00,   0.00, 1017.2,   86.9, -999.0
02-05-2022, 00:01:22,    184,    0.0,    7.8,   0.00,   0.00, 1017.2,   86.9, -999.0
02-05-2022, 00:01:32,    185,    0.0,    7.7,   0.00,   0.00, 1017.2,   86.8, -999.0
02-05-2022, 00:01:42,    184,    0.0,    7.6,   0.00,   0.00, 1017.2,   86.8, -999.0
02-05-2022, 00:01:52,    184,    0.0,    7.6,   0.00,   0.00, 1017.2,   86.8, -999.0
02-05-2022, 00:02:02,    184,    0.0,    7.6,   0.00,   0.00, 1017.1,   86.6, -999.0
02-05-2022, 00:02:12,    184,    0.0,    7.6,   0.00,   0.00, 1017.2,   86.7, -999.0
02-05-2022, 00:02:22,    184,    0.0,    7.6,   0.00,   0.00, 1017.2,   86.8, -999.0
02-05-2022, 00:02:32,    184,    0.0,    7.7,   0.00,   0.00, 1017.1,   86.8, -999.0
02-05-2022, 00:02:41,    184,    0.0,    7.7,   0.00,   0.00, 1017.1,   86.7, -999.0
02-05-2022, 00:02:52,    184,    0.0,    7.6,   0.00,   0.00, 1017.1,   86.9, -999.0
02-05-2022, 00:03:02,    184,    0.0,    7.6,   0.00,   0.00, 1017.1,   86.9, -999.0
02-05-2022, 00:03:11,    184,    0.0,    7.7,   0.00,   0.00, 1017.1,   87.0, -999.0
02-05-2022, 00:03:22,    185,    0.0,    7.6,   0.00,   0.00, 1017.1,   86.9, -999.0
02-05-2022, 00:03:32,    184,    0.0,    7.6,   0.00,   0.00, 1017.1,   86.9, -999.0
02-05-2022, 00:03:41,    184,    0.0,    7.6,   0.00,   0.00, 1017.2,   87.0, -999.0
02-05-2022, 00:03:51,    184,    0.0,    7.6,   0.00,   0.00, 1017.2,   87.0, -999.0
02-05-2022, 00:04:01,    184,    0.0,    7.6,   0.00,   0.00, 1017.1,   86.9, -999.0
02-05-2022, 00:04:11,    184,    0.0,    7.6,   0.00,   0.00, 1017.1,   87.1, -999.0
02-05-2022, 00:04:21,    185,    0.0,    7.6,   0.00,   0.00, 1017.1,   86.9, -999.0
02-05-2022, 00:04:31,    184,    0.0,    7.7,   0.00,   0.00, 1017.1,   87.1, -999.0
02-05-2022, 00:04:41,    183,    0.0,    7.6,   0.00,   0.00, 1017.1,   87.1, -999.0
02-05-2022, 00:04:51,    184,    0.0,    7.6,   0.00,   0.00, 1017.1,   87.1, -999.0
02-05-2022, 00:05:01,    184,    0.0,    7.6,   0.00,   0.00, 1017.1,   87.1, -999.0
02-05-2022, 00:05:11,    183,    0.0,    7.6,   0.00,   0.00, 1017.1,   87.2, -999.0
02-05-2022, 00:05:21,    184,    0.0,    7.7,   0.00,   0.00, 1017.1,   87.2, -999.0
02-05-2022, 00:05:31,    184,    0.0,    7.6,   0.00,   0.00, 1017.1,   87.3, -999.0
02-05-2022, 00:05:41,    184,    0.0,    7.7,   0.00,   0.00, 1017.1,   87.2, -999.0
02-05-2022, 00:05:51,    184,    0.0,    7.7,   0.00,   0.00, 1017.1,   87.3, -999.0
02-05-2022, 00:06:01,    183,    0.0,    7.7,   0.00,   0.00, 1017.1,   87.3, -999.0
02-05-2022, 00:06:11,    183,    0.0,    7.7,   0.00,   0.00, 1017.1,   87.3, -999.0
02-05-2022, 00:06:20,    184,    0.0,    7.7,   0.00,   0.00, 1017.1,   87.4, -999.0
02-05-2022, 00:06:31,    184,    0.0,    7.8,   0.00,   0.00, 1017.1,   87.5, -999.0
02-05-2022, 00:06:41,    184,    0.0,    7.7,   0.00,   0.00, 1017.1,   87.4, -999.0
02-05-2022, 00:06:50,    184,    0.0,    7.6,   0.00,   0.00, 1017.1,   87.4, -999.0
02-05-2022, 00:07:00,    184,    0.0,    7.7,   0.00,   0.00, 1017.1,   87.4, -999.0
02-05-2022, 00:07:11,    184,    0.0,    7.8,   0.00,   0.00, 1017.1,   87.6, -999.0
02-05-2022, 00:07:20,    184,    0.0,    7.7,   0.00,   0.00, 1017.1,   87.5, -999.0
02-05-2022, 00:07:30,    183,    0.0,    7.7,   0.00,   0.00, 1017.1,   87.4, -999.0
02-05-2022, 00:07:40,    183,    0.0,    7.8,   0.00,   0.00, 1017.1,   87.4, -999.0
02-05-2022, 00:07:50,    184,    0.0,    7.7,   0.00,   0.00, 1017.1,   87.5, -999.0
02-05-2022, 00:08:00,    184,    0.0,    7.7,   0.00,   0.00, 1017.1,   87.6, -999.0
02-05-2022, 00:08:10,    184,    0.0,    7.7,   0.00,   0.00, 1017.1,   87.4, -999.0
02-05-2022, 00:08:20,    184,    0.0,    7.8,   0.00,   0.00, 1017.1,   87.6, -999.0
02-05-2022, 00:08:30,    184,    0.0,    7.8,   0.00,   0.00, 1017.1,   87.6, -999.0
02-05-2022, 00:08:40,    184,    0.0,    7.8,   0.00,   0.00, 1017.1,   87.6, -999.0
02-05-2022, 00:08:50,    184,    0.0,    7.7,   0.00,   0.00, 1017.1,   87.7, -999.0
02-05-2022, 00:09:00,    184,    0.0,    7.8,   0.00,   0.00, 1017.1,   87.6, -999.0
02-05-2022, 00:09:10,    183,    0.0,    7.7,   0.00,   0.00, 1017.1,   87.6, -999.0
02-05-2022, 00:09:20,    184,    0.0,    7.8,   0.00,   0.00, 1017.1,   87.6, -999.0
02-05-2022, 00:09:29,    184,    0.0,    7.7,   0.00,   0.00, 1017.1,   87.4, -999.0
02-05-2022, 00:09:40,    184,    0.0,    7.7,   0.00,   0.00, 1017.1,   87.5, -999.0
02-05-2022, 00:09:50,    184,    0.0,    7.8,   0.00,   0.00, 1017.1,   87.4, -999.0
02-05-2022, 00:09:59,    180,    0.0,    7.7,   0.00,   0.00, 1017.1,   87.4, -999.0
02-05-2022, 00:10:10,    184,    0.0,    7.6,   0.00,   0.00, 1017.1,   87.2, -999.0
02-05-2022, 00:10:20,    184,    0.0,    7.7,   0.00,   0.00, 1017.1,   87.4, -999.0
02-05-2022, 00:10:29,    184,    0.0,    7.7,   0.00,   0.00, 1017.1,   87.4, -999.0
02-05-2022, 00:10:39,    184,    0.0,    7.6,   0.00,   0.00, 1017.1,   87.4, -999.0
02-05-2022, 00:10:50,    184,    0.0,    7.7,   0.00,   0.00, 1017.1,   87.3, -999.0
02-05-2022, 00:10:59,    184,    0.0,    7.8,   0.00,   0.00, 1017.1,   87.4, -999.0
02-05-2022, 00:11:09,    184,    0.0,    7.7,   0.00,   0.00, 1017.1,   87.5, -999.0
02-05-2022, 00:11:19,    184,    0.0,    7.8,   0.00,   0.00, 1017.1,   87.5, -999.0
02-05-2022, 00:11:29,    183,    0.0,    7.6,   0.00,   0.00, 1017.1,   87.4, -999.0
02-05-2022, 00:11:39,    184,    0.0,    7.7,   0.00,   0.00, 1017.1,   87.4, -999.0
02-05-2022, 00:11:49,    184,    0.0,    7.7,   0.00,   0.00, 1017.1,   87.3, -999.0
02-05-2022, 00:11:59,    183,    0.0,    7.7,   0.00,   0.00, 1017.1,   87.3, -999.0
02-05-2022, 00:12:09,    183,    0.0,    7.7,   0.00,   0.00, 1017.1,   87.4, -999.0
02-05-2022, 00:12:19,    184,    0.0,    7.7,   0.00,   0.00, 1017.1,   87.5, -999.0
02-05-2022, 00:12:29,    187,    0.0,    7.7,   0.00,   0.00, 1017.1,   87.4, -999.0
02-05-2022, 00:12:39,    184,    0.0,    7.7,   0.00,   0.00, 1017.1,   87.6, -999.0
02-05-2022, 00:12:49,    183,    0.0,    7.6,   0.00,   0.00, 1017.1,   87.5, -999.0
02-05-2022, 00:12:59,    184,    0.0,    7.7,   0.00,   0.00, 1017.1,   87.5, -999.0
02-05-2022, 00:13:09,    184,    0.0,    7.7,   0.00,   0.00, 1017.1,   87.7, -999.0
02-05-2022, 00:13:19,    184,    0.0,    7.7,   0.00,   0.00, 1017.1,   87.7, -999.0
02-05-2022, 00:13:29,    183,    0.0,    7.7,   0.00,   0.00, 1017.1,   87.7, -999.0
02-05-2022, 00:13:38,    184,    0.0,    7.8,   0.00,   0.00, 1017.1,   87.6, -999.0
02-05-2022, 00:13:48,    184,    0.0,    7.8,   0.00,   0.00, 1017.1,   87.8, -999.0
02-05-2022, 00:13:59,    184,    0.0,    7.8,   0.00,   0.00, 1017.1,   87.8, -999.0
02-05-2022, 00:14:08,    184,    0.0,    7.8,   0.00,   0.00, 1017.1,   87.8, -999.0
02-05-2022, 00:14:18,    183,    0.0,    7.8,   0.00,   0.00, 1017.1,   87.7, -999.0
02-05-2022, 00:14:28,    184,    0.0,    7.7,   0.00,   0.00, 1017.1,   87.7, -999.0
02-05-2022, 00:14:38,    184,    0.0,    7.8,   0.00,   0.00, 1017.1,   87.7, -999.0
02-05-2022, 00:14:48,    184,    0.0,    7.8,   0.00,   0.00, 1017.1,   87.7, -999.0
02-05-2022, 00:14:58,    183,    0.0,    7.8,   0.00,   0.00, 1017.1,   87.7, -999.0
02-05-2022, 00:15:08,    184,    0.0,    7.8,   0.00,   0.00, 1017.1,   87.7, -999.0
02-05-2022, 00:15:18,    184,    0.0,    7.9,   0.00,   0.00, 1017.1,   87.7, -999.0
02-05-2022, 00:15:28,    184,    0.0,    7.8,   0.00,   0.00, 1017.1,   87.6, -999.0
02-05-2022, 00:15:38,    183,    0.0,    7.8,   0.00,   0.00, 1017.1,   87.7, -999.0
02-05-2022, 00:15:48,    183,    0.0,    7.7,   0.00,   0.00, 1017.1,   87.5, -999.0
02-05-2022, 00:15:58,    183,    0.0,    7.7,   0.00,   0.00, 1017.1,   87.4, -999.0
02-05-2022, 00:16:08,    183,    0.0,    7.8,   0.00,   0.00, 1017.1,   87.5, -999.0
02-05-2022, 00:16:18,    183,    0.0,    7.7,   0.00,   0.00, 1017.1,   87.4, -999.0
02-05-2022, 00:16:28,    183,    0.0,    7.7,   0.00,   0.00, 1017.1,   87.5, -999.0
02-05-2022, 00:16:38,    183,    0.0,    7.7,   0.00,   0.00, 1017.1,   87.4, -999.0
02-05-2022, 00:16:48,    183,    0.0,    7.7,   0.00,   0.00, 1017.1,   87.3, -999.0
02-05-2022, 00:16:58,    183,    0.0,    7.7,   0.00,   0.00, 1017.1,   87.3, -999.0
02-05-2022, 00:17:08,    183,    0.0,    7.6,   0.00,   0.00, 1017.1,   87.4, -999.0
02-05-2022, 00:17:17,    183,    0.0,    7.7,   0.00,   0.00, 1017.1,   87.3, -999.0
02-05-2022, 00:17:27,    183,    0.0,    7.6,   0.00,   0.00, 1017.1,   87.4, -999.0
02-05-2022, 00:17:38,    183,    0.0,    7.6,   0.00,   0.00, 1017.1,   87.4, -999.0
02-05-2022, 00:17:47,    183,    0.0,    7.6,   0.00,   0.00, 1017.1,   87.5, -999.0
02-05-2022, 00:17:57,    183,    0.0,    7.6,   0.00,   0.00, 1017.1,   87.5, -999.0
02-05-2022, 00:18:07,    183,    0.0,    7.6,   0.00,   0.00, 1017.1,   87.6, -999.0
02-05-2022, 00:18:17,    183,    0.0,    7.7,   0.00,   0.00, 1017.1,   87.7, -999.0
02-05-2022, 00:18:27,    183,    0.0,    7.7,   0.00,   0.00, 1017.1,   87.8, -999.0
02-05-2022, 00:18:37,    183,    0.0,    7.7,   0.00,   0.00, 1017.1,   87.9, -999.0
02-05-2022, 00:18:47,    183,    0.0,    7.8,   0.00,   0.00, 1017.1,   88.0, -999.0
02-05-2022, 00:18:57,    183,    0.0,    7.8,   0.00,   0.00, 1017.1,   87.9, -999.0
02-05-2022, 00:19:07,    183,    0.0,    7.8,   0.00,   0.00, 1017.1,   87.9, -999.0
02-05-2022, 00:19:17,    183,    0.0,    7.8,   0.00,   0.00, 1017.1,   87.8, -999.0
02-05-2022, 00:19:27,    183,    0.0,    7.7,   0.00,   0.00, 1017.1,   87.7, -999.0
02-05-2022, 00:19:37,    183,    0.0,    7.8,   0.00,   0.00, 1017.0,   87.8, -999.0
02-05-2022, 00:19:47,    183,    0.0,    7.7,   0.00,   0.00, 1017.0,   87.8, -999.0
02-05-2022, 00:19:57,    183,    0.0,    7.7,   0.00,   0.00, 1017.1,   87.8, -999.0
02-05-2022, 00:20:07,    183,    0.0,    7.7,   0.00,   0.00, 1017.1,   87.7, -999.0
02-05-2022, 00:20:17,    183,    0.0,    7.6,   0.00,   0.00, 1017.1,   87.7, -999.0
02-05-2022, 00:20:27,    184,    0.0,    7.7,   0.00,   0.00, 1017.1,   87.7, -999.0
02-05-2022, 00:20:36,    183,    0.0,    7.8,   0.00,   0.00, 1017.1,   87.7, -999.0
02-05-2022, 00:20:47,    183,    0.0,    7.7,   0.00,   0.00, 1017.1,   87.8, -999.0
02-05-2022, 00:20:57,    183,    0.0,    7.8,   0.00,   0.00, 1017.1,   87.6, -999.0
02-05-2022, 00:21:06,    183,    0.0,    7.8,   0.00,   0.00, 1017.1,   87.9, -999.0
02-05-2022, 00:21:16,    183,    0.0,    7.9,   0.00,   0.00, 1017.1,   88.2, -999.0
02-05-2022, 00:21:27,    183,    0.0,    7.8,   0.00,   0.00, 1017.1,   88.2, -999.0
02-05-2022, 00:21:36,    183,    0.0,    7.8,   0.00,   0.00, 1017.1,   87.9, -999.0
02-05-2022, 00:21:46,    183,    0.0,    7.8,   0.00,   0.00, 1017.0,   88.2, -999.0
02-05-2022, 00:21:56,    183,    0.0,    7.8,   0.00,   0.00, 1017.1,   88.0, -999.0
02-05-2022, 00:22:06,    183,    0.0,    7.8,   0.00,   0.00, 1017.1,   87.8, -999.0
02-05-2022, 00:22:16,    183,    0.0,    7.8,   0.00,   0.00, 1017.0,   87.8, -999.0
02-05-2022, 00:22:26,    183,    0.0,    7.7,   0.00,   0.00, 1017.1,   87.7, -999.0
02-05-2022, 00:22:36,    183,    0.0,    7.7,   0.00,   0.00, 1017.1,   87.6, -999.0
02-05-2022, 00:22:46,    183,    0.0,    7.7,   0.00,   0.00, 1017.1,   87.5, -999.0
02-05-2022, 00:22:56,    183,    0.0,    7.8,   0.00,   0.00, 1017.0,   87.6, -999.0
02-05-2022, 00:23:06,    183,    0.0,    7.7,   0.00,   0.00, 1017.0,   87.6, -999.0
02-05-2022, 00:23:16,    183,    0.0,    7.5,   0.00,   0.00, 1017.0,   87.6, -999.0
02-05-2022, 00:23:26,    183,    0.0,    7.6,   0.00,   0.00, 1017.0,   87.7, -999.0
02-05-2022, 00:23:36,    183,    0.0,    7.7,   0.00,   0.00, 1017.0,   87.6, -999.0
02-05-2022, 00:23:46,    183,    0.0,    7.6,   0.00,   0.00, 1017.1,   87.6, -999.0
02-05-2022, 00:23:56,    183,    0.0,    7.7,   0.00,   0.00, 1017.0,   87.7, -999.0
02-05-2022, 00:24:06,    183,    0.0,    7.7,   0.00,   0.00, 1017.0,   87.8, -999.0
02-05-2022, 00:24:15,    183,    0.0,    7.7,   0.00,   0.00, 1017.0,   87.8, -999.0
02-05-2022, 00:24:25,    182,    0.0,    7.7,   0.00,   0.00, 1017.0,   87.8, -999.0
02-05-2022, 00:24:36,    183,    0.0,    7.7,   0.00,   0.00, 1017.1,   87.8, -999.0
02-05-2022, 00:24:45,    183,    0.0,    7.7,   0.00,   0.00, 1017.0,   87.9, -999.0
02-05-2022, 00:24:55,    183,    0.0,    7.8,   0.00,   0.00, 1017.0,   88.0, -999.0
02-05-2022, 00:25:05,    182,    0.0,    7.7,   0.00,   0.00, 1017.1,   87.9, -999.0
02-05-2022, 00:25:15,    183,    0.0,    7.7,   0.00,   0.00, 1017.0,   88.0, -999.0
02-05-2022, 00:25:25,    183,    0.0,    7.8,   0.00,   0.00, 1017.1,   88.0, -999.0
02-05-2022, 00:25:35,    182,    0.0,    7.7,   0.00,   0.00, 1017.1,   88.0, -999.0
02-05-2022, 00:25:45,    182,    0.0,    7.7,   0.00,   0.00, 1017.0,   88.1, -999.0
02-05-2022, 00:25:55,    183,    0.0,    7.7,   0.00,   0.00, 1017.0,   88.0, -999.0
02-05-2022, 00:26:05,    182,    0.0,    7.7,   0.00,   0.00, 1017.0,   87.8, -999.0
02-05-2022, 00:26:15,    183,    0.0,    7.7,   0.00,   0.00, 1017.0,   87.7, -999.0
02-05-2022, 00:26:25,    183,    0.0,    7.7,   0.00,   0.00, 1017.0,   87.8, -999.0
02-05-2022, 00:26:35,    183,    0.0,    7.7,   0.00,   0.00, 1017.0,   87.8, -999.0
02-05-2022, 00:26:45,    184,    0.0,    7.8,   0.00,   0.00, 1017.0,   87.9, -999.0
02-05-2022, 00:26:55,    183,    0.0,    7.7,   0.00,   0.00, 1017.0,   87.8, -999.0
02-05-2022, 00:27:05,    183,    0.0,    7.7,   0.00,   0.00, 1017.0,   87.8, -999.0
02-05-2022, 00:27:15,    183,    0.0,    7.6,   0.00,   0.00, 1017.0,   87.9, -999.0
02-05-2022, 00:27:25,    183,    0.0,    7.7,   0.00,   0.00, 1017.0,   87.8, -999.0
02-05-2022, 00:27:34,    182,    0.0,    7.7,   0.00,   0.00, 1017.0,   87.9, -999.0
02-05-2022, 00:27:45,    183,    0.0,    7.6,   0.00,   0.00, 1017.0,   87.8, -999.0
02-05-2022, 00:27:55,    183,    0.0,    7.6,   0.00,   0.00, 1017.0,   87.9, -999.0
02-05-2022, 00:28:04,    183,    0.0,    7.6,   0.00,   0.00, 1017.0,   87.9, -999.0
02-05-2022, 00:28:15,    183,    0.0,    7.6,   0.00,   0.00, 1017.0,   87.8, -999.0
02-05-2022, 00:28:24,    183,    0.0,    7.6,   0.00,   0.00, 1017.1,   87.9, -999.0
02-05-2022, 00:28:34,    182,    0.0,    7.7,   0.00,   0.00, 1017.0,   88.0, -999.0
02-05-2022, 00:28:44,    182,    0.0,    7.6,   0.00,   0.00, 1017.0,   88.0, -999.0
02-05-2022, 00:28:54,    182,    0.0,    7.7,   0.00,   0.00, 1017.0,   88.1, -999.0
02-05-2022, 00:29:04,    183,    0.0,    7.7,   0.00,   0.00, 1017.0,   88.1, -999.0
02-05-2022, 00:29:14,    183,    0.0,    7.7,   0.00,   0.00, 1017.0,   88.1, -999.0
02-05-2022, 00:29:24,    183,    0.0,    7.7,   0.00,   0.00, 1017.0,   88.3, -999.0
02-05-2022, 00:29:34,    182,    0.0,    7.8,   0.00,   0.00, 1017.0,   88.2, -999.0
02-05-2022, 00:29:44,    183,    0.0,    7.7,   0.00,   0.00, 1017.0,   88.2, -999.0
02-05-2022, 00:29:54,    182,    0.0,    7.7,   0.00,   0.00, 1017.0,   88.3, -999.0
02-05-2022, 00:30:04,    182,    0.0,    7.7,   0.00,   0.00, 1017.0,   88.2, -999.0
02-05-2022, 00:30:14,    182,    0.0,    7.7,   0.00,   0.00, 1017.0,   88.3, -999.0
02-05-2022, 00:30:24,    182,    0.0,    7.7,   0.00,   0.00, 1017.0,   88.3, -999.0
02-05-2022, 00:30:34,    183,    0.0,    7.7,   0.00,   0.00, 1017.0,   88.3, -999.0
02-05-2022, 00:30:44,    182,    0.0,    7.6,   0.00,   0.00, 1017.0,   88.1, -999.0
02-05-2022, 00:30:54,    182,    0.0,    7.6,   0.00,   0.00, 1017.0,   88.0, -999.0
02-05-2022, 00:31:04,    183,    0.0,    7.7,   0.00,   0.00, 1017.0,   88.1, -999.0
02-05-2022, 00:31:13,    183,    0.0,    7.7,   0.00,   0.00, 1017.1,   88.1, -999.0
02-05-2022, 00:31:24,    183,    0.0,    7.6,   0.00,   0.00, 1017.1,   88.1, -999.0
02-05-2022, 00:31:34,    182,    0.0,    7.6,   0.00,   0.00, 1017.1,   88.2, -999.0
02-05-2022, 00:31:43,    182,    0.0,    7.6,   0.00,   0.00, 1017.1,   88.3, -999.0
02-05-2022, 00:31:53,    182,    0.0,    7.7,   0.00,   0.00, 1017.1,   88.2, -999.0
02-05-2022, 00:32:03,    181,    0.0,    7.7,   0.00,   0.00, 1017.0,   88.3, -999.0
02-05-2022, 00:32:13,    183,    0.0,    7.6,   0.00,   0.00, 1017.1,   88.1, -999.0
02-05-2022, 00:32:23,    182,    0.0,    7.6,   0.00,   0.00, 1017.0,   88.0, -999.0
02-05-2022, 00:32:33,    182,    0.0,    7.6,   0.00,   0.00, 1017.1,   88.1, -999.0
02-05-2022, 00:32:43,    182,    0.0,    7.6,   0.00,   0.00, 1017.0,   88.0, -999.0
02-05-2022, 00:32:53,    182,    0.0,    7.6,   0.00,   0.00, 1017.1,   88.0, -999.0
02-05-2022, 00:33:03,    183,    0.0,    7.5,   0.00,   0.00, 1017.0,   88.1, -999.0
02-05-2022, 00:33:13,    182,    0.0,    7.6,   0.00,   0.00, 1017.0,   88.3, -999.0
02-05-2022, 00:33:23,    182,    0.0,    7.6,   0.00,   0.00, 1017.0,   88.2, -999.0
02-05-2022, 00:33:33,    182,    0.0,    7.6,   0.00,   0.00, 1017.1,   88.3, -999.0
02-05-2022, 00:33:43,    182,    0.0,    7.6,   0.00,   0.00, 1017.1,   88.3, -999.0
02-05-2022, 00:33:53,    182,    0.0,    7.7,   0.00,   0.00, 1017.1,   88.3, -999.0
02-05-2022, 00:34:03,    182,    0.0,    7.7,   0.00,   0.00, 1017.0,   88.2, -999.0
02-05-2022, 00:34:13,    182,    0.0,    7.6,   0.00,   0.00, 1017.0,   88.3, -999.0
02-05-2022, 00:34:22,    182,    0.0,    7.7,   0.00,   0.00, 1017.0,   88.3, -999.0
02-05-2022, 00:34:33,    182,    0.0,    7.7,   0.00,   0.00, 1017.1,   88.3, -999.0
02-05-2022, 00:34:43,    182,    0.0,    7.6,   0.00,   0.00, 1017.1,   88.5, -999.0
02-05-2022, 00:34:52,    182,    0.0,    7.7,   0.00,   0.00, 1017.0,   88.5, -999.0
02-05-2022, 00:35:02,    183,    0.0,    7.7,   0.00,   0.00, 1017.0,   88.5, -999.0
02-05-2022, 00:35:13,    182,    0.0,    7.7,   0.00,   0.00, 1017.1,   88.6, -999.0
02-05-2022, 00:35:22,    182,    0.0,    7.7,   0.00,   0.00, 1017.1,   88.6, -999.0
02-05-2022, 00:35:32,    182,    0.0,    7.7,   0.00,   0.00, 1017.0,   88.4, -999.0
02-05-2022, 00:35:42,    182,    0.0,    7.6,   0.00,   0.00, 1017.1,   88.3, -999.0
02-05-2022, 00:35:52,    182,    0.0,    7.7,   0.00,   0.00, 1017.0,   88.5, -999.0
02-05-2022, 00:36:02,    182,    0.0,    7.7,   0.00,   0.00, 1017.0,   88.3, -999.0
02-05-2022, 00:36:12,    182,    0.0,    7.7,   0.00,   0.00, 1017.0,   88.5, -999.0
02-05-2022, 00:36:22,    182,    0.0,    7.7,   0.00,   0.00, 1017.1,   88.5, -999.0
02-05-2022, 00:36:32,    182,    0.0,    7.6,   0.00,   0.00, 1017.1,   88.2, -999.0
02-05-2022, 00:36:42,    182,    0.0,    7.6,   0.00,   0.00, 1017.0,   88.3, -999.0
02-05-2022, 00:36:52,    182,    0.0,    7.7,   0.00,   0.00, 1017.0,   88.2, -999.0
02-05-2022, 00:37:02,    182,    0.0,    7.6,   0.00,   0.00, 1017.1,   88.3, -999.0
02-05-2022, 00:37:12,    182,    0.0,    7.5,   0.00,   0.00, 1017.0,   88.4, -999.0
02-05-2022, 00:37:22,    182,    0.0,    7.7,   0.00,   0.00, 1017.0,   88.4, -999.0
02-05-2022, 00:37:32,    182,    0.0,    7.6,   0.00,   0.00, 1017.0,   88.3, -999.0
02-05-2022, 00:37:42,    182,    0.0,    7.6,   0.00,   0.00, 1017.0,   88.3, -999.0
02-05-2022, 00:37:52,    182,    0.0,    7.6,   0.00,   0.00, 1017.1,   88.4, -999.0
02-05-2022, 00:38:02,    182,    0.0,    7.6,   0.00,   0.00, 1017.1,   88.4, -999.0
02-05-2022, 00:38:11,    182,    0.0,    7.6,   0.00,   0.00, 1017.1,   88.4, -999.0
02-05-2022, 00:38:22,    182,    0.0,    7.6,   0.00,   0.00, 1017.0,   88.4, -999.0
02-05-2022, 00:38:31,    182,    0.0,    7.5,   0.00,   0.00, 1017.0,   88.5, -999.0
02-05-2022, 00:38:41,    182,    0.0,    7.5,   0.00,   0.00, 1017.1,   88.5, -999.0
02-05-2022, 00:38:52,    182,    0.0,    7.5,   0.00,   0.00, 1017.0,   88.5, -999.0
02-05-2022, 00:39:01,    182,    0.0,    7.5,   0.00,   0.00, 1017.0,   88.5, -999.0
02-05-2022, 00:39:11,    182,    0.0,    7.5,   0.00,   0.00, 1017.1,   88.5, -999.0
02-05-2022, 00:39:21,    182,    0.0,    7.6,   0.00,   0.00, 1017.0,   88.5, -999.0
02-05-2022, 00:39:31,    182,    0.0,    7.6,   0.00,   0.00, 1017.0,   88.7, -999.0
02-05-2022, 00:39:41,    182,    0.0,    7.6,   0.00,   0.00, 1017.1,   88.6, -999.0
02-05-2022, 00:39:51,    182,    0.0,    7.6,   0.00,   0.00, 1017.0,   88.6, -999.0
02-05-2022, 00:40:01,    182,    0.0,    7.6,   0.00,   0.00, 1017.0,   88.6, -999.0
02-05-2022, 00:40:11,    182,    0.0,    7.6,   0.00,   0.00, 1017.0,   88.7, -999.0
02-05-2022, 00:40:21,    182,    0.0,    7.6,   0.00,   0.00, 1017.0,   88.7, -999.0
02-05-2022, 00:40:31,    182,    0.0,    7.7,   0.00,   0.00, 1017.0,   88.7, -999.0
02-05-2022, 00:40:41,    182,    0.0,    7.6,   0.00,   0.00, 1017.0,   88.9, -999.0
02-05-2022, 00:40:51,    182,    0.0,    7.6,   0.00,   0.00, 1017.0,   88.9, -999.0
02-05-2022, 00:41:01,    182,    0.0,    7.6,   0.00,   0.00, 1017.0,   88.9, -999.0
02-05-2022, 00:41:11,    182,    0.0,    7.6,   0.00,   0.00, 1017.0,   88.8, -999.0
02-05-2022, 00:41:20,    182,    0.0,    7.6,   0.00,   0.00, 1017.0,   88.8, -999.0
02-05-2022, 00:41:31,    182,    0.0,    7.6,   0.00,   0.00, 1017.0,   88.8, -999.0
02-05-2022, 00:41:41,    182,    0.0,    7.6,   0.00,   0.00, 1017.0,   88.8, -999.0
02-05-2022, 00:41:50,    182,    0.0,    7.6,   0.00,   0.00, 1017.0,   88.8, -999.0
02-05-2022, 00:42:01,    182,    0.0,    7.6,   0.00,   0.00, 1017.0,   88.8, -999.0
02-05-2022, 00:42:11,    182,    0.0,    7.6,   0.00,   0.00, 1017.0,   88.9, -999.0
02-05-2022, 00:42:20,    182,    0.0,    7.6,   0.00,   0.00, 1017.0,   88.7, -999.0
02-05-2022, 00:42:30,    182,    0.0,    7.6,   0.00,   0.00, 1017.0,   88.8, -999.0
02-05-2022, 00:42:40,    182,    0.0,    7.6,   0.00,   0.00, 1017.0,   88.9, -999.0
02-05-2022, 00:42:50,    182,    0.0,    7.6,   0.00,   0.00, 1017.0,   88.9, -999.0
02-05-2022, 00:43:00,    182,    0.0,    7.6,   0.00,   0.00, 1017.0,   89.0, -999.0
02-05-2022, 00:43:10,    182,    0.0,    7.6,   0.00,   0.00, 1017.0,   89.1, -999.0
02-05-2022, 00:43:20,    182,    0.0,    7.7,   0.00,   0.00, 1017.0,   89.0, -999.0
02-05-2022, 00:43:30,    182,    0.0,    7.6,   0.00,   0.00, 1017.0,   89.1, -999.0
02-05-2022, 00:43:40,    183,    0.0,    7.7,   0.00,   0.00, 1017.0,   89.1, -999.0
02-05-2022, 00:43:50,    182,    0.0,    7.7,   0.00,   0.00, 1017.0,   89.1, -999.0
02-05-2022, 00:44:00,    182,    0.0,    7.8,   0.00,   0.00, 1017.0,   89.2, -999.0
02-05-2022, 00:44:10,    182,    0.0,    7.7,   0.00,   0.00, 1017.0,   89.3, -999.0
02-05-2022, 00:44:20,    182,    0.0,    7.7,   0.00,   0.00, 1017.0,   89.1, -999.0
02-05-2022, 00:44:30,    182,    0.0,    7.7,   0.00,   0.00, 1017.0,   89.1, -999.0
02-05-2022, 00:44:40,    182,    0.0,    7.7,   0.00,   0.00, 1017.0,   89.0, -999.0
02-05-2022, 00:44:50,    182,    0.0,    7.6,   0.00,   0.00, 1017.0,   89.0, -999.0
02-05-2022, 00:44:59,    181,    0.0,    7.6,   0.00,   0.00, 1017.0,   88.9, -999.0
02-05-2022, 00:45:10,    182,    0.0,    7.6,   0.00,   0.00, 1017.0,   89.0, -999.0
02-05-2022, 00:45:20,    182,    0.0,    7.5,   0.00,   0.00, 1017.0,   89.1, -999.0
02-05-2022, 00:45:29,    182,    0.0,    7.6,   0.00,   0.00, 1017.0,   89.0, -999.0
02-05-2022, 00:45:39,    181,    0.0,    7.7,   0.00,   0.00, 1017.0,   89.2, -999.0
02-05-2022, 00:45:50,    182,    0.0,    7.5,   0.00,   0.00, 1017.0,   89.1, -999.0
02-05-2022, 00:45:59,    181,    0.0,    7.7,   0.00,   0.00, 1017.0,   89.1, -999.0
02-05-2022, 00:46:09,    182,    0.0,    7.6,   0.00,   0.00, 1017.0,   89.1, -999.0
02-05-2022, 00:46:19,    181,    0.0,    7.7,   0.00,   0.00, 1017.0,   89.0, -999.0
02-05-2022, 00:46:29,    182,    0.0,    7.5,   0.00,   0.00, 1017.0,   89.0, -999.0
02-05-2022, 00:46:39,    181,    0.0,    7.6,   0.00,   0.00, 1016.9,   89.0, -999.0